Location: Newark
(50.4375°N, 16.6489°E)
Time: 15:02:59
(UTC+00:00)

ISS - Visible Passes

Search period start: 23 October 2019 00:00
Search period end: 02 November 2019 00:00
Orbit: 411 x 421 km, 51.6° (Epoch: 24 October)

Date Brightness Start Highest point End Pass type
(mag) Time Alt. Az. Time Alt. Az. Time Alt. Az.
24 Oct -0.9 04:50:33 10° S 04:52:59 19° SE 04:55:25 10° E visible
25 Oct -0.7 04:03:07 10° SSE 04:04:36 12° SE 04:06:07 10° ESE visible
26 Oct -2.3 04:49:06 10° SW 04:52:14 36° SSE 04:55:22 10° E visible
27 Oct -1.7 04:00:54 10° SSW 04:03:44 25° SE 04:06:35 10° E visible
28 Oct -1.4 03:14:38 17° SSE 03:15:17 17° SE 03:17:37 10° E visible
28 Oct -3.4 04:48:13 10° WSW 04:51:35 67° SSE 04:54:56 10° ENE visible
29 Oct -3.0 04:01:16 24° SW 04:03:00 49° SSE 04:06:16 10° ENE visible
30 Oct -2.3 03:14:51 33° SE 03:14:51 33° SE 03:17:32 10° E visible
30 Oct -3.8 04:47:45 11° W 04:51:00 82° NNW 04:54:23 10° ENE visible
31 Oct -0.4 02:28:21 12° E 02:28:21 12° E 02:28:41 10° E visible
31 Oct -3.8 04:01:14 40° WSW 04:02:20 82° SSE 04:05:43 10° ENE visible
01 Nov -2.4 03:14:39 40° E 03:14:39 40° E 03:17:02 10° ENE visible
01 Nov -3.7 04:47:33 13° W 04:50:26 69° N 04:53:48 10° E visible
